Location: Brno
(49.2000°N, 16.6330°E)
Time: 23:35:48
(UTC+02:00)

Cosmos 2227 - Visible Passes

Search period start: 21 October 2014 00:00
Search period end: 30 October 2014 23:00
Orbit: 834 x 862 km, 71.0° (Epoch: 20 October)

Date Brightness Start Highest point End Pass type
(mag) Time Alt. Az. Time Alt. Az. Time Alt. Az.
21 Oct 7.6 05:39:49 10° ESE 05:41:31 11° E 05:43:12 10° ENE visible
22 Oct 7.6 05:26:55 10° ESE 05:28:29 11° E 05:30:03 10° ENE visible
23 Oct 7.5 05:14:03 10° ESE 05:15:28 11° E 05:16:53 10° E visible
24 Oct 7.5 05:01:11 10° ESE 05:02:27 11° E 05:03:42 10° E visible
24 Oct 4.8 06:39:50 10° SSW 06:45:31 65° ESE 06:51:12 10° NNE visible
25 Oct 7.4 04:48:22 10° ESE 04:49:26 11° E 04:50:30 10° E visible
25 Oct 4.8 06:26:49 10° SSW 06:32:29 64° ESE 06:38:10 10° NNE visible
26 Oct 7.4 03:35:34 10° ESE 03:36:24 10° E 03:37:15 10° E visible
26 Oct 4.8 05:13:47 10° SSW 05:19:27 64° ESE 05:25:08 10° NNE visible
27 Oct 7.4 03:22:53 10° E 03:23:23 10° E 03:23:53 10° E visible
27 Oct 4.8 05:00:46 10° SSW 05:06:25 63° ESE 05:12:05 10° NNE visible
28 Oct 4.7 04:47:44 10° SSW 04:53:23 62° ESE 04:59:03 10° NE visible
29 Oct 4.7 04:34:43 10° S 04:40:21 61° ESE 04:46:00 10° NE visible
30 Oct 4.7 04:21:42 10° S 04:27:20 60° ESE 04:32:58 10° NE visible
